Year,Month,Day,Hour,Minute,Value (Times are PST for temperature in C)
2007,06,19,00,00,7.70
2007,06,19,00,01,7.70
2007,06,19,00,02,7.70
2007,06,19,00,03,7.70
2007,06,19,00,04,7.70
2007,06,19,00,05,7.70
2007,06,19,00,06,7.70
2007,06,19,00,07,7.70
2007,06,19,00,08,7.70
2007,06,19,00,09,7.70
2007,06,19,00,10,7.70
2007,06,19,00,11,7.80
2007,06,19,00,12,7.80
2007,06,19,00,13,7.80
2007,06,19,00,14,7.80
2007,06,19,00,15,7.80
2007,06,19,00,16,7.80
2007,06,19,00,17,7.80
2007,06,19,00,18,7.80
2007,06,19,00,19,7.80
2007,06,19,00,20,7.80
2007,06,19,00,21,7.80
2007,06,19,00,22,7.80
2007,06,19,00,23,7.90
2007,06,19,00,24,7.90
2007,06,19,00,25,7.90
2007,06,19,00,26,7.90
2007,06,19,00,27,7.90
2007,06,19,00,28,7.90
2007,06,19,00,29,8.00
2007,06,19,00,30,8.00
2007,06,19,00,31,8.00
2007,06,19,00,32,8.00
2007,06,19,00,33,8.00
2007,06,19,00,34,8.00
2007,06,19,00,35,8.00
2007,06,19,00,36,8.00
2007,06,19,00,37,8.00
2007,06,19,00,38,8.10
2007,06,19,00,39,8.10
2007,06,19,00,40,8.10
2007,06,19,00,41,8.10
2007,06,19,00,42,8.00
2007,06,19,00,43,8.00
2007,06,19,00,44,8.00
2007,06,19,00,45,8.00
2007,06,19,00,46,8.00
2007,06,19,00,47,8.00
2007,06,19,00,48,8.00
2007,06,19,00,49,8.00
2007,06,19,00,50,8.00
2007,06,19,00,51,8.00
2007,06,19,00,52,8.00
2007,06,19,00,53,7.90
2007,06,19,00,54,7.90
2007,06,19,00,55,7.90
2007,06,19,00,56,7.90
2007,06,19,00,57,7.90
2007,06,19,00,58,7.90
2007,06,19,00,59,7.80
2007,06,19,01,00,7.80
2007,06,19,01,01,7.80
2007,06,19,01,02,7.80
2007,06,19,01,03,7.80
2007,06,19,01,04,7.80
2007,06,19,01,05,7.80
2007,06,19,01,06,7.80
2007,06,19,01,07,7.80
2007,06,19,01,08,7.80
2007,06,19,01,09,7.80
2007,06,19,01,10,7.80
2007,06,19,01,11,7.70
2007,06,19,01,12,7.70
2007,06,19,01,13,7.70
2007,06,19,01,14,7.70
2007,06,19,01,15,7.70
2007,06,19,01,16,7.70
2007,06,19,01,17,7.60
2007,06,19,01,18,7.60
2007,06,19,01,19,7.60
2007,06,19,01,20,7.50
2007,06,19,01,21,7.50
2007,06,19,01,22,7.50
2007,06,19,01,23,7.40
2007,06,19,01,24,7.40
2007,06,19,01,25,7.40
2007,06,19,01,26,7.40
2007,06,19,01,27,7.40
2007,06,19,01,28,7.40
2007,06,19,01,29,7.40
2007,06,19,01,30,7.40
2007,06,19,01,31,7.40
2007,06,19,01,32,7.30
2007,06,19,01,33,7.30
2007,06,19,01,34,7.30
2007,06,19,01,35,7.30
2007,06,19,01,36,7.30
2007,06,19,01,37,7.30
2007,06,19,01,38,7.30
2007,06,19,01,39,7.30
2007,06,19,01,40,7.30
2007,06,19,01,41,7.20
2007,06,19,01,42,7.20
2007,06,19,01,43,7.20
2007,06,19,01,44,7.20
2007,06,19,01,45,7.10
2007,06,19,01,46,7.10
2007,06,19,01,47,7.10
2007,06,19,01,48,7.00
2007,06,19,01,49,7.00
2007,06,19,01,50,6.90
2007,06,19,01,51,6.90
2007,06,19,01,52,6.90
2007,06,19,01,53,6.90
2007,06,19,01,54,6.80
2007,06,19,01,55,6.80
2007,06,19,01,56,6.80
2007,06,19,01,57,6.80
2007,06,19,01,58,6.80
2007,06,19,01,59,6.80
2007,06,19,02,00,6.70
2007,06,19,02,01,6.70
2007,06,19,02,02,6.70
2007,06,19,02,03,6.70
2007,06,19,02,04,6.60
2007,06,19,02,05,6.60
2007,06,19,02,06,6.60
2007,06,19,02,07,6.60
2007,06,19,02,08,6.60
2007,06,19,02,09,6.60
2007,06,19,02,10,6.50
2007,06,19,02,11,6.40
2007,06,19,02,12,6.40
2007,06,19,02,13,6.40
2007,06,19,02,14,6.40
2007,06,19,02,15,6.30
2007,06,19,02,16,6.30
2007,06,19,02,17,6.30
2007,06,19,02,18,6.30
2007,06,19,02,19,6.30
2007,06,19,02,20,6.30
2007,06,19,02,21,6.30
2007,06,19,02,22,6.30
2007,06,19,02,23,6.30
2007,06,19,02,24,6.30
2007,06,19,02,25,6.30
2007,06,19,02,26,6.20
2007,06,19,02,27,6.20
2007,06,19,02,28,6.20
2007,06,19,02,29,6.20
2007,06,19,02,30,6.20
2007,06,19,02,31,6.20
2007,06,19,02,32,6.20
2007,06,19,02,33,6.20
2007,06,19,02,34,6.30
2007,06,19,02,35,6.30
2007,06,19,02,36,6.30
2007,06,19,02,37,6.30
2007,06,19,02,38,6.30
2007,06,19,02,39,6.20
2007,06,19,02,40,6.20
2007,06,19,02,41,6.20
2007,06,19,02,42,6.20
2007,06,19,02,43,6.20
2007,06,19,02,44,6.20
2007,06,19,02,45,6.20
2007,06,19,02,46,6.20
2007,06,19,02,47,6.20
2007,06,19,02,48,6.20
2007,06,19,02,49,6.20
2007,06,19,02,50,6.20
2007,06,19,02,51,6.20
2007,06,19,02,52,6.20
2007,06,19,02,53,6.20
2007,06,19,02,54,6.20
2007,06,19,02,55,6.20
2007,06,19,02,56,6.30
2007,06,19,02,57,6.30
2007,06,19,02,58,6.30
2007,06,19,02,59,6.30
2007,06,19,03,00,6.40
2007,06,19,03,01,6.40
2007,06,19,03,02,6.40
2007,06,19,03,03,6.40
2007,06,19,03,04,6.40
2007,06,19,03,05,6.40
2007,06,19,03,06,6.40
2007,06,19,03,07,6.40
2007,06,19,03,08,6.40
2007,06,19,03,09,6.40
2007,06,19,03,10,6.40
2007,06,19,03,11,6.40
2007,06,19,03,12,6.50
2007,06,19,03,13,6.60
2007,06,19,03,14,6.60
2007,06,19,03,15,6.60
2007,06,19,03,16,6.60
2007,06,19,03,17,6.60
2007,06,19,03,18,6.60
2007,06,19,03,19,6.60
2007,06,19,03,20,6.60
2007,06,19,03,21,6.60
2007,06,19,03,22,6.60
2007,06,19,03,23,6.70
2007,06,19,03,24,6.70
2007,06,19,03,25,6.70
2007,06,19,03,26,6.80
2007,06,19,03,27,6.80
2007,06,19,03,28,6.80
2007,06,19,03,29,6.80
2007,06,19,03,30,6.80
2007,06,19,03,31,6.80
2007,06,19,03,32,6.80
2007,06,19,03,33,6.80
2007,06,19,03,34,6.80
2007,06,19,03,35,6.80
2007,06,19,03,36,6.80
2007,06,19,03,37,6.90
2007,06,19,03,38,6.90
2007,06,19,03,39,6.90
2007,06,19,03,40,6.90
2007,06,19,03,41,7.00
2007,06,19,03,42,7.00
2007,06,19,03,43,7.00
2007,06,19,03,44,7.00
2007,06,19,03,45,7.00
2007,06,19,03,46,7.00
2007,06,19,03,47,7.00
2007,06,19,03,48,7.00
2007,06,19,03,49,7.00
2007,06,19,03,50,7.00
2007,06,19,03,51,7.00
2007,06,19,03,52,7.00
2007,06,19,03,53,7.00
2007,06,19,03,54,7.00
2007,06,19,03,55,7.00
2007,06,19,03,56,7.00
2007,06,19,03,57,7.00
2007,06,19,03,58,7.00
2007,06,19,03,59,7.00
2007,06,19,04,00,7.00
2007,06,19,04,01,7.00
2007,06,19,04,02,7.00
2007,06,19,04,03,7.00
2007,06,19,04,04,7.00
2007,06,19,04,05,7.00
2007,06,19,04,06,7.00
2007,06,19,04,07,7.00
2007,06,19,04,08,7.00
2007,06,19,04,09,7.00
2007,06,19,04,10,7.00
2007,06,19,04,11,7.10
2007,06,19,04,12,7.10
2007,06,19,04,13,7.10
2007,06,19,04,14,7.10
2007,06,19,04,15,7.10
2007,06,19,04,16,7.10
2007,06,19,04,17,7.10
2007,06,19,04,18,7.10
2007,06,19,04,19,7.10
2007,06,19,04,20,7.10
2007,06,19,04,21,7.10
2007,06,19,04,22,7.20
2007,06,19,04,23,7.20
2007,06,19,04,24,7.20
2007,06,19,04,25,7.20
2007,06,19,04,26,7.20
2007,06,19,04,27,7.20
2007,06,19,04,28,7.30
2007,06,19,04,29,7.30
2007,06,19,04,30,7.30
2007,06,19,04,31,7.30
2007,06,19,04,32,7.30
2007,06,19,04,33,7.30
2007,06,19,04,34,7.30
2007,06,19,04,35,7.30
2007,06,19,04,36,7.30
2007,06,19,04,37,7.30
2007,06,19,04,38,7.30
2007,06,19,04,39,7.30
2007,06,19,04,40,7.30
2007,06,19,04,41,7.30
2007,06,19,04,42,7.20
2007,06,19,04,43,7.20
2007,06,19,04,44,7.20
2007,06,19,04,45,7.20
2007,06,19,04,46,7.20
2007,06,19,04,47,7.20
2007,06,19,04,48,7.10
2007,06,19,04,49,7.10
2007,06,19,04,50,7.10
2007,06,19,04,51,7.10
2007,06,19,04,52,7.10
2007,06,19,04,53,7.10
2007,06,19,04,54,7.10
2007,06,19,04,55,7.10
2007,06,19,04,56,7.00
2007,06,19,04,57,7.00
2007,06,19,04,58,7.00
2007,06,19,04,59,7.00
2007,06,19,05,00,7.00
2007,06,19,05,01,7.00
2007,06,19,05,02,7.00
2007,06,19,05,03,7.00
2007,06,19,05,04,7.00
2007,06,19,05,05,6.90
2007,06,19,05,06,6.90
2007,06,19,05,07,6.90
2007,06,19,05,08,6.90
2007,06,19,05,09,6.80
2007,06,19,05,10,6.80
2007,06,19,05,11,6.80
2007,06,19,05,12,6.80
2007,06,19,05,13,6.80
2007,06,19,05,14,6.80
2007,06,19,05,15,6.80
2007,06,19,05,16,6.70
2007,06,19,05,17,6.70
2007,06,19,05,18,6.70
2007,06,19,05,19,6.60
2007,06,19,05,20,6.60
2007,06,19,05,21,6.60
2007,06,19,05,22,6.60
2007,06,19,05,23,6.60
2007,06,19,05,24,6.60
2007,06,19,05,25,6.60
2007,06,19,05,26,6.40
2007,06,19,05,27,6.40
2007,06,19,05,28,6.40
2007,06,19,05,29,6.40
2007,06,19,05,30,6.40
2007,06,19,05,31,6.40
2007,06,19,05,32,6.30
2007,06,19,05,33,6.30
2007,06,19,05,34,6.30
2007,06,19,05,35,6.30
2007,06,19,05,36,6.20
2007,06,19,05,37,6.20
2007,06,19,05,38,6.20
2007,06,19,05,39,6.20
2007,06,19,05,40,6.20
2007,06,19,05,41,6.20
2007,06,19,05,42,6.20
2007,06,19,05,43,6.20
2007,06,19,05,44,6.20
2007,06,19,05,45,6.20
2007,06,19,05,46,6.20
2007,06,19,05,47,6.20
2007,06,19,05,48,6.20
2007,06,19,05,49,6.20
2007,06,19,05,50,6.20
2007,06,19,05,51,6.20
2007,06,19,05,52,6.20
2007,06,19,05,53,6.10
2007,06,19,05,54,6.10
2007,06,19,05,55,6.10
2007,06,19,05,56,6.10
2007,06,19,05,57,6.10
2007,06,19,05,58,6.10
2007,06,19,05,59,6.10
2007,06,19,06,00,6.10
2007,06,19,06,01,6.10
2007,06,19,06,02,6.00
2007,06,19,06,03,6.00
2007,06,19,06,04,6.00
2007,06,19,06,05,6.00
2007,06,19,06,06,6.00
2007,06,19,06,07,6.00
2007,06,19,06,08,6.00
2007,06,19,06,09,6.00
2007,06,19,06,10,6.00
2007,06,19,06,11,6.00
2007,06,19,06,12,6.00
2007,06,19,06,13,6.00
2007,06,19,06,14,6.00
2007,06,19,06,15,6.00
2007,06,19,06,16,6.00
2007,06,19,06,17,6.00
2007,06,19,06,18,6.00
2007,06,19,06,19,6.00
2007,06,19,06,20,6.10
2007,06,19,06,21,6.10
2007,06,19,06,22,6.10
2007,06,19,06,23,6.10
2007,06,19,06,24,6.10
2007,06,19,06,25,6.10
2007,06,19,06,26,6.10
2007,06,19,06,27,6.10
2007,06,19,06,28,6.20
2007,06,19,06,29,6.20
2007,06,19,06,30,6.20
2007,06,19,06,31,6.20
2007,06,19,06,32,6.20
2007,06,19,06,33,6.20
2007,06,19,06,34,6.20
2007,06,19,06,35,6.20
2007,06,19,06,36,6.20
2007,06,19,06,37,6.20
2007,06,19,06,38,6.30
2007,06,19,06,39,6.30
2007,06,19,06,40,6.30
2007,06,19,06,41,6.30
2007,06,19,06,42,6.30
2007,06,19,06,43,6.40
2007,06,19,06,44,6.40
2007,06,19,06,45,6.40
2007,06,19,06,46,6.40
2007,06,19,06,47,6.40
2007,06,19,06,48,6.40
2007,06,19,06,49,6.50
2007,06,19,06,50,6.60
2007,06,19,06,51,6.60
2007,06,19,06,52,6.60
2007,06,19,06,53,6.60
2007,06,19,06,54,6.60
2007,06,19,06,55,6.60
2007,06,19,06,56,6.60
2007,06,19,06,57,6.70
2007,06,19,06,58,6.70
2007,06,19,06,59,6.70
2007,06,19,07,00,6.80
2007,06,19,07,01,6.80
2007,06,19,07,02,6.80
2007,06,19,07,03,6.90
2007,06,19,07,04,6.90
2007,06,19,07,05,7.00
2007,06,19,07,06,7.00
2007,06,19,07,07,7.10
2007,06,19,07,08,7.10
2007,06,19,07,09,7.20
2007,06,19,07,10,7.20
2007,06,19,07,11,7.30
2007,06,19,07,12,7.40
2007,06,19,07,13,7.50
2007,06,19,07,14,7.50
2007,06,19,07,15,7.60
2007,06,19,07,16,7.70
2007,06,19,07,17,7.80
2007,06,19,07,18,7.90
2007,06,19,07,19,8.00
2007,06,19,07,20,8.10
2007,06,19,07,21,8.20
2007,06,19,07,22,8.30
2007,06,19,07,23,8.50
2007,06,19,07,24,8.50
2007,06,19,07,25,8.70
2007,06,19,07,26,8.80
2007,06,19,07,27,8.90
2007,06,19,07,28,9.00
2007,06,19,07,29,9.10
2007,06,19,07,30,9.20
2007,06,19,07,31,9.30
2007,06,19,07,32,9.40
2007,06,19,07,33,9.50
2007,06,19,07,34,9.50
2007,06,19,07,35,9.70
2007,06,19,07,36,9.70
2007,06,19,07,37,9.80
2007,06,19,07,38,10.10
2007,06,19,07,39,10.20
2007,06,19,07,40,10.30
2007,06,19,07,41,10.40
2007,06,19,07,42,10.50
2007,06,19,07,43,10.60
2007,06,19,07,44,10.70
2007,06,19,07,45,10.90
2007,06,19,07,46,10.90
2007,06,19,07,47,11.00
2007,06,19,07,48,11.10
2007,06,19,07,49,11.30
2007,06,19,07,50,11.40
2007,06,19,07,51,11.40
2007,06,19,07,52,11.40
2007,06,19,07,53,11.60
2007,06,19,07,54,11.60
2007,06,19,07,55,11.60
2007,06,19,07,56,11.60
2007,06,19,07,57,11.70
2007,06,19,07,58,11.80
2007,06,19,07,59,11.80
2007,06,19,08,00,11.80
2007,06,19,08,01,11.80
2007,06,19,08,02,11.90
2007,06,19,08,03,11.90
2007,06,19,08,04,11.90
2007,06,19,08,05,12.00
2007,06,19,08,06,12.00
2007,06,19,08,07,12.00
2007,06,19,08,08,12.00
2007,06,19,08,09,12.10
2007,06,19,08,10,12.20
2007,06,19,08,11,12.30
2007,06,19,08,12,12.30
2007,06,19,08,13,12.40
2007,06,19,08,14,12.50
2007,06,19,08,15,12.50
2007,06,19,08,16,12.60
2007,06,19,08,17,12.70
2007,06,19,08,18,12.80
2007,06,19,08,19,12.90
2007,06,19,08,20,13.00
2007,06,19,08,21,13.10
2007,06,19,08,22,13.20
2007,06,19,08,23,13.20
2007,06,19,08,24,13.30
2007,06,19,08,25,13.20
2007,06,19,08,26,13.20
2007,06,19,08,27,13.10
2007,06,19,08,28,13.20
2007,06,19,08,29,13.20
2007,06,19,08,30,13.20
2007,06,19,08,31,13.30
2007,06,19,08,32,13.30
2007,06,19,08,33,13.30
2007,06,19,08,34,13.50
2007,06,19,08,35,13.60
2007,06,19,08,36,13.70
2007,06,19,08,37,13.70
2007,06,19,08,38,13.80
2007,06,19,08,39,13.80
2007,06,19,08,40,13.80
2007,06,19,08,41,13.90
2007,06,19,08,42,13.90
2007,06,19,08,43,14.00
2007,06,19,08,44,14.10
2007,06,19,08,45,14.10
2007,06,19,08,46,14.20
2007,06,19,08,47,14.20
2007,06,19,08,48,14.30
2007,06,19,08,49,14.30
2007,06,19,08,50,14.30
2007,06,19,08,51,14.20
2007,06,19,08,52,14.20
2007,06,19,08,53,14.20
2007,06,19,08,54,14.10
2007,06,19,08,55,14.10
2007,06,19,08,56,14.10
2007,06,19,08,57,14.20
2007,06,19,08,58,14.10
2007,06,19,08,59,14.10
2007,06,19,09,00,14.10
2007,06,19,09,01,14.00
2007,06,19,09,02,14.00
2007,06,19,09,03,14.00
2007,06,19,09,04,14.00
2007,06,19,09,05,14.00
2007,06,19,09,06,14.00
2007,06,19,09,07,14.20
2007,06,19,09,08,14.20
2007,06,19,09,09,14.30
2007,06,19,09,10,14.40
2007,06,19,09,11,14.50
2007,06,19,09,12,14.60
2007,06,19,09,13,14.70
2007,06,19,09,14,14.80
2007,06,19,09,15,14.90
2007,06,19,09,16,15.00
2007,06,19,09,17,14.90
2007,06,19,09,18,14.90
2007,06,19,09,19,14.80
2007,06,19,09,20,14.80
2007,06,19,09,21,14.80
2007,06,19,09,22,14.80
2007,06,19,09,23,14.90
2007,06,19,09,24,15.00
2007,06,19,09,25,15.10
2007,06,19,09,26,15.20
2007,06,19,09,27,15.30
2007,06,19,09,28,15.30
2007,06,19,09,29,15.30
2007,06,19,09,30,15.30
2007,06,19,09,31,15.30
2007,06,19,09,32,15.30
2007,06,19,09,33,15.30
2007,06,19,09,34,15.30
2007,06,19,09,35,15.40
2007,06,19,09,36,15.40
2007,06,19,09,37,15.40
2007,06,19,09,38,15.30
2007,06,19,09,39,15.20
2007,06,19,09,40,15.20
2007,06,19,09,41,15.30
2007,06,19,09,42,15.30
2007,06,19,09,43,15.50
2007,06,19,09,44,15.50
2007,06,19,09,45,15.60
2007,06,19,09,46,15.70
2007,06,19,09,47,15.70
2007,06,19,09,48,15.80
2007,06,19,09,49,15.80
2007,06,19,09,50,15.90
2007,06,19,09,51,16.10
2007,06,19,09,52,16.10
2007,06,19,09,53,16.10
2007,06,19,09,54,16.20
2007,06,19,09,55,16.30
2007,06,19,09,56,16.20
2007,06,19,09,57,16.20
2007,06,19,09,58,16.20
2007,06,19,09,59,16.20
2007,06,19,10,00,16.10
2007,06,19,10,01,16.10
2007,06,19,10,02,16.10
2007,06,19,10,03,15.90
2007,06,19,10,04,15.90
2007,06,19,10,05,15.90
2007,06,19,10,06,15.90
2007,06,19,10,07,16.00
2007,06,19,10,08,16.10
2007,06,19,10,09,16.10
2007,06,19,10,10,16.30
2007,06,19,10,11,16.40
2007,06,19,10,12,16.40
2007,06,19,10,13,16.50
2007,06,19,10,14,16.60
2007,06,19,10,15,16.50
2007,06,19,10,16,16.40
2007,06,19,10,17,16.40
2007,06,19,10,18,16.40
2007,06,19,10,19,16.40
2007,06,19,10,20,16.30
2007,06,19,10,21,16.10
2007,06,19,10,22,16.10
2007,06,19,10,23,16.10
2007,06,19,10,24,16.10
2007,06,19,10,25,16.20
2007,06,19,10,26,16.30
2007,06,19,10,27,16.40
2007,06,19,10,28,16.40
2007,06,19,10,29,16.50
2007,06,19,10,30,16.60
2007,06,19,10,31,16.70
2007,06,19,10,32,16.70
2007,06,19,10,33,16.70
2007,06,19,10,34,16.70
2007,06,19,10,35,16.70
2007,06,19,10,36,16.70
2007,06,19,10,37,16.80
2007,06,19,10,38,16.70
2007,06,19,10,39,16.80
2007,06,19,10,40,16.80
2007,06,19,10,41,16.80
2007,06,19,10,42,16.80
2007,06,19,10,43,16.80
2007,06,19,10,44,16.80
2007,06,19,10,45,16.70
2007,06,19,10,46,16.70
2007,06,19,10,47,16.70
2007,06,19,10,48,16.70
2007,06,19,10,49,16.70
2007,06,19,10,50,16.70
2007,06,19,10,51,16.70
2007,06,19,10,52,16.70
2007,06,19,10,53,16.60
2007,06,19,10,54,16.70
2007,06,19,10,55,16.70
2007,06,19,10,56,16.80
2007,06,19,10,57,16.90
2007,06,19,10,58,17.00
2007,06,19,10,59,17.00
2007,06,19,11,00,17.10
2007,06,19,11,01,17.10
2007,06,19,11,02,17.00
2007,06,19,11,03,17.00
2007,06,19,11,04,16.90
2007,06,19,11,05,16.80
2007,06,19,11,06,16.70
2007,06,19,11,07,16.70
2007,06,19,11,08,16.80
2007,06,19,11,09,16.90
2007,06,19,11,10,16.90
2007,06,19,11,11,16.90
2007,06,19,11,12,17.00
2007,06,19,11,13,17.10
2007,06,19,11,14,17.10
2007,06,19,11,15,17.30
2007,06,19,11,16,17.40
2007,06,19,11,17,17.40
2007,06,19,11,18,17.40
2007,06,19,11,19,17.50
2007,06,19,11,20,17.50
2007,06,19,11,21,17.60
2007,06,19,11,22,17.50
2007,06,19,11,23,17.50
2007,06,19,11,24,17.50
2007,06,19,11,25,17.70
2007,06,19,11,26,17.70
2007,06,19,11,27,17.90
2007,06,19,11,28,17.90
2007,06,19,11,29,17.90
2007,06,19,11,30,17.80
2007,06,19,11,31,17.80
2007,06,19,11,32,17.70
2007,06,19,11,33,17.70
2007,06,19,11,34,17.70
2007,06,19,11,35,17.80
2007,06,19,11,36,17.90
2007,06,19,11,37,17.90
2007,06,19,11,38,17.90
2007,06,19,11,39,17.90
2007,06,19,11,40,17.90
2007,06,19,11,41,17.90
2007,06,19,11,42,17.90
2007,06,19,11,43,18.10
2007,06,19,11,44,18.10
2007,06,19,11,45,18.20
2007,06,19,11,46,17.90
2007,06,19,11,47,17.80
2007,06,19,11,48,17.80
2007,06,19,11,49,17.70
2007,06,19,11,50,17.60
2007,06,19,11,51,17.40
2007,06,19,11,52,17.40
2007,06,19,11,53,17.50
2007,06,19,11,54,17.60
2007,06,19,11,55,17.70
2007,06,19,11,56,17.90
2007,06,19,11,57,17.90
2007,06,19,11,58,18.00
2007,06,19,11,59,18.20
2007,06,19,12,00,18.20
2007,06,19,12,01,18.20
2007,06,19,12,02,18.20
2007,06,19,12,03,18.20
2007,06,19,12,04,18.20
2007,06,19,12,05,18.20
2007,06,19,12,06,18.20
2007,06,19,12,07,18.20
2007,06,19,12,08,18.20
2007,06,19,12,09,18.20
2007,06,19,12,10,18.20
2007,06,19,12,11,18.20
2007,06,19,12,12,18.20
2007,06,19,12,13,18.20
2007,06,19,12,14,18.20
2007,06,19,12,15,18.20
2007,06,19,12,16,18.20
2007,06,19,12,17,18.20
2007,06,19,12,18,18.20
2007,06,19,12,19,18.10
2007,06,19,12,20,18.20
2007,06,19,12,21,18.20
2007,06,19,12,22,18.20
2007,06,19,12,23,18.10
2007,06,19,12,24,18.00
2007,06,19,12,25,17.90
2007,06,19,12,26,17.90
2007,06,19,12,27,17.90
2007,06,19,12,28,18.00
2007,06,19,12,29,18.10
2007,06,19,12,30,18.20
2007,06,19,12,31,18.10
2007,06,19,12,32,18.20
2007,06,19,12,33,18.20
2007,06,19,12,34,18.20
2007,06,19,12,35,18.40
2007,06,19,12,36,18.50
2007,06,19,12,37,18.50
2007,06,19,12,38,18.50
2007,06,19,12,39,18.50
2007,06,19,12,40,18.40
2007,06,19,12,41,18.40
2007,06,19,12,42,18.40
2007,06,19,12,43,18.40
2007,06,19,12,44,18.40
2007,06,19,12,45,18.40
2007,06,19,12,46,18.40
2007,06,19,12,47,18.40
2007,06,19,12,48,18.40
2007,06,19,12,49,18.50
2007,06,19,12,50,18.60
2007,06,19,12,51,18.60
2007,06,19,12,52,18.60
2007,06,19,12,53,18.60
2007,06,19,12,54,18.80
2007,06,19,12,55,18.80
2007,06,19,12,56,18.80
2007,06,19,12,57,18.80
2007,06,19,12,58,18.70
2007,06,19,12,59,18.80
2007,06,19,13,00,18.80
2007,06,19,13,01,18.90
2007,06,19,13,02,19.10
2007,06,19,13,03,19.10
2007,06,19,13,04,19.10
2007,06,19,13,05,19.00
2007,06,19,13,06,18.90
2007,06,19,13,07,18.80
2007,06,19,13,08,18.70
2007,06,19,13,09,18.70
2007,06,19,13,10,18.70
2007,06,19,13,11,18.70
2007,06,19,13,12,18.70
2007,06,19,13,13,18.70
2007,06,19,13,14,18.60
2007,06,19,13,15,18.60
2007,06,19,13,16,18.60
2007,06,19,13,17,18.60
2007,06,19,13,18,18.60
2007,06,19,13,19,18.60
2007,06,19,13,20,18.70
2007,06,19,13,21,18.70
2007,06,19,13,22,18.60
2007,06,19,13,23,18.60
2007,06,19,13,24,18.70
2007,06,19,13,25,18.80
2007,06,19,13,26,18.80
2007,06,19,13,27,18.80
2007,06,19,13,28,18.90
2007,06,19,13,29,18.90
2007,06,19,13,30,18.90
2007,06,19,13,31,18.90
2007,06,19,13,32,18.90
2007,06,19,13,33,18.90
2007,06,19,13,34,18.90
2007,06,19,13,35,19.10
2007,06,19,13,36,19.10
2007,06,19,13,37,19.20
2007,06,19,13,38,19.20
2007,06,19,13,39,19.20
2007,06,19,13,40,19.20
2007,06,19,13,41,19.20
2007,06,19,13,42,19.10
2007,06,19,13,43,19.10
2007,06,19,13,44,19.10
2007,06,19,13,45,19.20
2007,06,19,13,46,19.20
2007,06,19,13,47,19.20
2007,06,19,13,48,19.30
2007,06,19,13,49,19.40
2007,06,19,13,50,19.40
2007,06,19,13,51,19.40
2007,06,19,13,52,19.40
2007,06,19,13,53,19.40
2007,06,19,13,54,19.40
2007,06,19,13,55,19.40
2007,06,19,13,56,19.30
2007,06,19,13,57,19.20
2007,06,19,13,58,19.20
2007,06,19,13,59,19.10
2007,06,19,14,00,19.10
2007,06,19,14,01,19.30
2007,06,19,14,02,19.40
2007,06,19,14,03,19.50
2007,06,19,14,04,19.60
2007,06,19,14,05,19.60
2007,06,19,14,06,19.50
2007,06,19,14,07,19.50
2007,06,19,14,08,19.60
2007,06,19,14,09,19.60
2007,06,19,14,10,19.50
2007,06,19,14,11,19.50
2007,06,19,14,12,19.50
2007,06,19,14,13,19.60
2007,06,19,14,14,19.50
2007,06,19,14,15,19.40
2007,06,19,14,16,19.40
2007,06,19,14,17,19.40
2007,06,19,14,18,19.40
2007,06,19,14,19,19.40
2007,06,19,14,20,19.40
2007,06,19,14,21,19.40
2007,06,19,14,22,19.30
2007,06,19,14,23,19.20
2007,06,19,14,24,19.30
2007,06,19,14,25,19.30
2007,06,19,14,26,19.30
2007,06,19,14,27,19.20
2007,06,19,14,28,19.10
2007,06,19,14,29,19.10
2007,06,19,14,30,19.10
2007,06,19,14,31,19.10
2007,06,19,14,32,19.10
2007,06,19,14,33,19.10
2007,06,19,14,34,19.10
2007,06,19,14,35,19.20
2007,06,19,14,36,19.20
2007,06,19,14,37,19.20
2007,06,19,14,38,19.20
2007,06,19,14,39,19.20
2007,06,19,14,40,19.20
2007,06,19,14,41,19.20
2007,06,19,14,42,19.20
2007,06,19,14,43,19.20
2007,06,19,14,44,19.10
2007,06,19,14,45,19.10
2007,06,19,14,46,19.00
2007,06,19,14,47,18.90
2007,06,19,14,48,18.90
2007,06,19,14,49,19.00
2007,06,19,14,50,19.10
2007,06,19,14,51,19.10
2007,06,19,14,52,19.20
2007,06,19,14,53,19.40
2007,06,19,14,54,19.40
2007,06,19,14,55,19.40
2007,06,19,14,56,19.50
2007,06,19,14,57,19.50
2007,06,19,14,58,19.60
2007,06,19,14,59,19.70
2007,06,19,15,00,19.80
2007,06,19,15,01,19.80
2007,06,19,15,02,19.60
2007,06,19,15,03,19.60
2007,06,19,15,04,19.60
2007,06,19,15,05,19.60
2007,06,19,15,06,19.60
2007,06,19,15,07,19.50
2007,06,19,15,08,19.30
2007,06,19,15,09,19.30
2007,06,19,15,10,19.30
2007,06,19,15,11,19.30
2007,06,19,15,12,19.30
2007,06,19,15,13,19.40
2007,06,19,15,14,19.50
2007,06,19,15,15,19.50
2007,06,19,15,16,19.60
2007,06,19,15,17,19.60
2007,06,19,15,18,19.70
2007,06,19,15,19,19.70
2007,06,19,15,20,19.80
2007,06,19,15,21,19.90
2007,06,19,15,22,20.00
2007,06,19,15,23,20.10
2007,06,19,15,24,20.20
2007,06,19,15,25,20.20
2007,06,19,15,26,20.20
2007,06,19,15,27,20.30
2007,06,19,15,28,20.40
2007,06,19,15,29,20.40
2007,06,19,15,30,20.30
2007,06,19,15,31,20.20
2007,06,19,15,32,20.20
2007,06,19,15,33,20.10
2007,06,19,15,34,20.10
2007,06,19,15,35,19.90
2007,06,19,15,36,19.90
2007,06,19,15,37,20.10
2007,06,19,15,38,20.10
2007,06,19,15,39,20.00
2007,06,19,15,40,19.90
2007,06,19,15,41,19.90
2007,06,19,15,42,19.90
2007,06,19,15,43,19.90
2007,06,19,15,44,19.90
2007,06,19,15,45,19.90
2007,06,19,15,46,19.90
2007,06,19,15,47,19.90
2007,06,19,15,48,19.80
2007,06,19,15,49,19.80
2007,06,19,15,50,19.60
2007,06,19,15,51,19.50
2007,06,19,15,52,19.40
2007,06,19,15,53,19.40
2007,06,19,15,54,19.40
2007,06,19,15,55,19.40
2007,06,19,15,56,19.30
2007,06,19,15,57,19.20
2007,06,19,15,58,19.10
2007,06,19,15,59,19.10
2007,06,19,16,00,19.00
2007,06,19,16,01,18.90
2007,06,19,16,02,18.90
2007,06,19,16,03,18.90
2007,06,19,16,04,18.80
2007,06,19,16,05,18.80
2007,06,19,16,06,18.90
2007,06,19,16,07,18.90
2007,06,19,16,08,18.70
2007,06,19,16,09,18.70
2007,06,19,16,10,18.70
2007,06,19,16,11,18.70
2007,06,19,16,12,18.70
2007,06,19,16,13,18.70
2007,06,19,16,14,18.70
2007,06,19,16,15,18.60
2007,06,19,16,16,18.70
2007,06,19,16,17,18.70
2007,06,19,16,18,18.70
2007,06,19,16,19,18.70
2007,06,19,16,20,18.70
2007,06,19,16,21,18.60
2007,06,19,16,22,18.60
2007,06,19,16,23,18.50
2007,06,19,16,24,18.50
2007,06,19,16,25,18.50
2007,06,19,16,26,18.40
2007,06,19,16,27,18.40
2007,06,19,16,28,18.40
2007,06,19,16,29,18.40
2007,06,19,16,30,18.40
2007,06,19,16,31,18.40
2007,06,19,16,32,18.30
2007,06,19,16,33,18.30
2007,06,19,16,34,18.30
2007,06,19,16,35,18.30
2007,06,19,16,36,18.30
2007,06,19,16,37,18.30
2007,06,19,16,38,18.30
2007,06,19,16,39,18.30
2007,06,19,16,40,18.20
2007,06,19,16,41,18.30
2007,06,19,16,42,18.30
2007,06,19,16,43,18.30
2007,06,19,16,44,18.30
2007,06,19,16,45,18.30
2007,06,19,16,46,18.30
2007,06,19,16,47,18.30
2007,06,19,16,48,18.30
2007,06,19,16,49,18.30
2007,06,19,16,50,18.30
2007,06,19,16,51,18.30
2007,06,19,16,52,18.30
2007,06,19,16,53,18.20
2007,06,19,16,54,18.20
2007,06,19,16,55,18.20
2007,06,19,16,56,18.20
2007,06,19,16,57,18.20
2007,06,19,16,58,18.20
2007,06,19,16,59,18.20
2007,06,19,17,00,18.20
2007,06,19,17,01,18.20
2007,06,19,17,02,18.20
2007,06,19,17,03,18.20
2007,06,19,17,04,18.10
2007,06,19,17,05,18.10
2007,06,19,17,06,18.10
2007,06,19,17,07,18.10
2007,06,19,17,08,18.10
2007,06,19,17,09,18.10
2007,06,19,17,10,18.10
2007,06,19,17,11,18.10
2007,06,19,17,12,17.90
2007,06,19,17,13,17.90
2007,06,19,17,14,17.90
2007,06,19,17,15,17.90
2007,06,19,17,16,17.90
2007,06,19,17,17,17.90
2007,06,19,17,18,17.90
2007,06,19,17,19,17.90
2007,06,19,17,20,17.90
2007,06,19,17,21,17.90
2007,06,19,17,22,17.90
2007,06,19,17,23,17.90
2007,06,19,17,24,17.90
2007,06,19,17,25,17.90
2007,06,19,17,26,17.90
2007,06,19,17,27,17.90
2007,06,19,17,28,17.90
2007,06,19,17,29,17.90
2007,06,19,17,30,17.90
2007,06,19,17,31,18.10
2007,06,19,17,32,18.10
2007,06,19,17,33,18.10
2007,06,19,17,34,18.10
2007,06,19,17,35,18.10
2007,06,19,17,36,18.20
2007,06,19,17,37,18.20
2007,06,19,17,38,18.20
2007,06,19,17,39,18.20